Location: York
(31.8935°S, 116.7682°E)
Time: 20:35:43
(UTC+08:00)

CUBEBUG 2 - Visible Passes

Search period start: 08 December 2022 00:00
Search period end: 18 December 2022 00:00
Orbit: 583 x 690 km, 97.7° (Epoch: 08 December)

Date Brightness Start Highest point End Pass type
(mag) Time Alt. Az. Time Alt. Az. Time Alt. Az.
08 Dec ? 02:10:36 55° S 02:10:36 55° S 02:14:03 10° S visible
09 Dec ? 02:33:14 42° SW 02:33:14 42° SW 02:36:21 10° SSW visible
10 Dec ? 01:18:21 18° ESE 01:18:21 18° ESE 01:21:12 10° SSE visible
10 Dec ? 02:55:52 25° WSW 02:55:52 25° WSW 02:58:18 10° SW visible
11 Dec ? 01:40:58 31° ESE 01:40:58 31° ESE 01:44:19 10° S visible
11 Dec ? 03:18:28 14° WSW 03:18:28 14° WSW 03:19:40 10° SW visible
12 Dec ? 02:03:35 50° SSE 02:03:35 50° SSE 02:06:59 10° S visible
13 Dec ? 02:26:12 47° SW 02:26:12 47° SW 02:29:21 10° SSW visible
14 Dec ? 01:11:18 15° ESE 01:11:19 15° ESE 01:13:42 10° SE visible
14 Dec ? 02:48:48 28° WSW 02:48:48 28° WSW 02:51:23 10° SSW visible
15 Dec ? 01:33:53 26° ESE 01:33:53 26° ESE 01:37:02 10° SSE visible
15 Dec ? 03:11:24 16° WSW 03:11:24 16° WSW 03:12:56 10° SW visible
16 Dec ? 01:56:29 43° SE 01:56:29 43° SE 01:59:47 10° S visible
17 Dec ? 02:19:05 49° SSW 02:19:05 49° SSW 02:22:12 10° SSW visible
